Regional Weather Roundup
Issued by NWS Albany, NY

Home | Current Version | Previous Version | Graphics & Text | Print | Product List | Glossary Off
Versions: 1 2 3 4 5 6 7 8 9 10 11 12 13 14 15 16 17 18 19 20 21 22 23 24 25 26 27 28 29 30 31 32 33 34 35 36 37 38 39 40 41 42 43 44 45 46 47 48 49 50

000
ASUS41 KALY 061610
RWRALY

NEW YORK STATE HOURLY WEATHER ROUNDUP
NATIONAL WEATHER SERVICE ALBANY NY
1200 PM EDT WED MAY 06 2015

NOTE: "FAIR" INDICATES FEW OR NO CLOUDS BELOW 12,000 FEET WITH NO
SIGNIFICANT WEATHER AND/OR NO OBSTRUCTIONS TO VISIBILITY.

NYZ032-033-038>043-046>054-057>066-NYZ062>081-061700-
EAST


CITY           SKY/WX    TMP DP  RH WIND       PRES   REMARKS
ALBANY         MOSUNNY   72  29  20 CALM      30.30F
GLENS FALLS    SUNNY     70  32  24 NW5       30.29F
POUGHKEEPSIE   CLOUDY    64  47  53 N3        30.30F
NEWBURGH       CLOUDY    63  43  48 CALM      30.32F
MONTGOMERY     CLOUDY    63  43  48 N3        30.31S
WHITE PLAINS   CLOUDY    63  42  46 VRB3      30.29F
ISLIP          CLOUDY    63  39  41 NE9       30.27F
NEW YORK CITY  CLOUDY    62  41  46 NE8       30.30R
CENTRAL PARK   CLOUDY    66  41  40 NE7G17    30.32S
$$

NYZ005>009-017-018-044>046-055-056-061700-
CENTRAL


CITY           SKY/WX    TMP DP  RH WIND       PRES   REMARKS
FULTON         SUNNY     71  36  27 S8        30.29F
SYRACUSE       MOSUNNY   71  37  28 NE6       30.28F
ROME           SUNNY     70  37  29 S8        30.30F
ELMIRA         CLOUDY    61  51  70 CALM      30.30F
BINGHAMTON     CLOUDY    57  48  72 SE6       30.31F
MONTICELLO     CLOUDY    59  46  63 CALM      30.34S
$$

NYZ026>034-041>043-061700-
NORTH


CITY           SKY/WX    TMP DP  RH WIND       PRES   REMARKS
WATERTOWN      SUNNY     72  42  34 W9        30.28F
FORT DRUM      NOT AVBL
MASSENA        SUNNY     72  35  25 SW8       30.28F
SARANAC LAKE   SUNNY     66  28  24 SE5       30.29F
PLATTSBURGH    SUNNY     66  34  30 SE13      30.27F
$$

NYZ001>004-010>016-019>021-061700-
WEST


CITY           SKY/WX    TMP DP  RH WIND       PRES   REMARKS
NIAGARA FALLS  MOSUNNY   69  45  41 SE12      30.25F
BUFFALO        PTSUNNY   69  45  41 VRB6      30.25F
DUNKIRK        CLOUDY    66  56  70 SE8       30.24F
JAMESTOWN      CLOUDY    55  54  94 E7        30.27S
WELLSVILLE     CLOUDY    58  45  62 SE14G22   30.30F
ROCHESTER      MOSUNNY   70  36  28 SE16G22   30.28F
PENN YAN       CLOUDY    64  48  56 E8        30.30F
$$

             KEY
       WCI = WIND CHILL INDEX
       VSB = VISIBILITY
       HX  = HEAT INDEX
$$



USA.gov is the U.S. government's official web portal to all federal, state and local government web resources and services.